486P/Leonard (2018)

Japanese version
Home page
Updated on July 27, 2024

---------------------------------------------------------------------

* Profile

Designation 486P/2018 L5
Discovery Date June 14, 2018
Magnitude 18.5 mag
Discoverer G. J. Leonard (Mount Lemmon)

* Pictures

* Orbital Elements

Epoch 2018 May 2.0 TT = JDT 2458240.5                                           
T 2018 May 4.47981 TT                                   Rudenko                 
q   2.3033288            (2000.0)            P               Q                  
n   0.14286907     Peri.   93.63880     +0.67892369     +0.73380523             
a   3.6239086      Node   219.15735     -0.68800080     +0.62426965             
e   0.3644076      Incl.    2.20920     -0.25635429     +0.26798746             
P   6.90                                                                        
>From 232 observations 2018 June 8-2024 May 29, mean residual 0".7.              

* Magnitudes Graph

        m1 = 13.5 + 5 log d + 10.0 log r

---------------------------------------------------------------------

The orbital elements are published on M.P.E.C. 2024-K145.
The magnitudes graphs are made with Comet for Windows.

---------------------------------------------------------------------

Copyright(C) Seiichi Yoshida (comet@aerith.net). All rights reserved.